Regional Weather Roundup
Issued by NWS

Home | Current Version | Previous Version | Graphics & Text | Print | Product List | Glossary On
Versions: 1 2 3 4 5 6 7 8 9 10 11 12 13 14 15 16 17 18 19 20 21 22 23 24 25 26 27 28 29 30 31 32 33 34 35 36 37 38 39 40 41 42 43 44 45 46 47 48 49 50
000
ASUS45 KABQ 260601
RWRNM
WEATHER ROUNDUP FOR NEW MEXICO
NATIONAL WEATHER SERVICE ALBUQUERQUE NM
1100 PM MST THU DEC 25 2014

NOTE: "FAIR" MEANS FEW OR NO CLOUDS BELOW 12,000 FEET AGL WITH NO
       SIGNIFICANT WEATHER OR OBSTRUCTIONS TO VISION.

      THIS PRODUCT IS RELEASED AS TWO VERSIONS.  ONE VERSION NEAR
      THE TOP OF THE HOUR CONTAINING PRELIMINARY DATA FROM ALBUQUERQUE
      AND OTHER STATIONS.  A FINAL VERSION WITH ADDITIONAL DATA IS
      ISSUED ABOUT 10 MINUTES AFTER THE HOUR.

NMZ501-503-504-510>518-260700-
NORTHWEST PLATEAU/NORTHCENTRAL MOUNTAINS

CITY           SKY/WX    TMP DP  RH WIND       PRES   REMARKS
FARMINGTON     MOCLDY    25  19  78 W6        29.68S WCI  18
6HR MIN TEMP:  25; 6HR MAX TEMP:  37;

LOS ALAMOS     FOG       28  28 100 CALM      29.71R VSB 3/4
SANTA FE       LGT SNOW  30  28  92 E7        29.71F FOG     WCI  23
6HR MIN TEMP:  30; 6HR MAX TEMP:  39; 6HR PCP: TRACE;

TAOS           CLOUDY    27  27 100 CALM      29.71  VSB 1/2
ANGEL FIRE     LGT SNOW  27  24  88 SW15      29.69S WCI  15

$$
NMZ402-403-502-505>509-260700-
WESTCENTRAL MOUNTAINS/SOUTHWEST MOUNTAINS

CITY           SKY/WX    TMP DP  RH WIND       PRES   REMARKS
GALLUP         MOCLDY    22  18  85 S5        29.70R WCI  16
6HR MIN TEMP:  22; 6HR MAX TEMP:  30; 6HR PCP:  0.10;

GRANTS         CLOUDY    11   9  92 CALM      29.74R
SILVER CITY    MOCLDY    39  27  60 NW17      29.77R WCI  30

$$
NMZ407-409-411-412-260700-
SOUTHERN DESERTS

CITY           SKY/WX    TMP DP  RH WIND       PRES   REMARKS
LORDSBURG      RAIN      36  34  93 NW20G26   29.82R WCI  25
DEMING         PTCLDY    49  22  34 SW10G21   29.72S
6HR MIN TEMP:  47; 6HR MAX TEMP:  59;

HOLLOMAN AFB   PTCLDY    44  21  40 W6        29.72S
ALAMOGORDO     PTCLDY    50  19  29 S12       29.75S
T OR C         CLEAR     47  21  35 S15       29.68R
6HR MIN TEMP:  46; 6HR MAX TEMP:  58;


$$
NMZ519>523-260700-
CENTRAL VALLEYS/CENTRAL HIGHLANDS

CITY           SKY/WX    TMP DP  RH WIND       PRES   REMARKS
ALBUQUERQUE    CLOUDY    39  25  57 S7        29.73R WCI  34
6HR MIN TEMP:  38; 6HR MAX TEMP:  49;

DOUBLE EAGLE   CLOUDY    32  27  80 W9        29.71S WCI  24
MORIARTY ARPT  CLOUDY    33  26  77 N6        29.73S WCI  27
6HR MIN TEMP:  33; 6HR MAX TEMP:  43;

CLINES CORNERS CLOUDY    29  27  92 NW13      29.68F WCI  19
6HR MIN TEMP:  29; 6HR MAX TEMP:  42; 6HR PCP:  0.01;

BELEN          CLOUDY    37  30  76 SW5       29.75R WCI  33
6HR MIN TEMP:  37; 6HR MAX TEMP:  53;

SOCORRO        CLOUDY    42  29  59 N10       29.71R
6HR MIN TEMP:  42; 6HR MAX TEMP:  56;


$$
NMZ524>526-539-540-260700-
SOUTHCENTRAL MOUNTAINS

CITY           SKY/WX    TMP DP  RH WIND       PRES   REMARKS
RUIDOSO        PTCLDY    41  16  36 SW23G37   29.74S

$$
NMZ527>531-260700-
NORTHEAST HIGHLANDS/NORTHEAST PLAINS

CITY           SKY/WX    TMP DP  RH WIND       PRES   REMARKS
LAS VEGAS      PTCLDY    30  22  72 SW12      29.68S WCI  20
6HR MIN TEMP:  29; 6HR MAX TEMP:  36;

RATON          CLOUDY    31  23  72 N7        29.66R WCI  24
6HR MIN TEMP:  27; 6HR MAX TEMP:  39;

CLAYTON        CLEAR     34  18  52 W8        29.66R WCI  27
6HR MIN TEMP:  31; 6HR MAX TEMP:  46;


$$
NMZ532>537-260700-
EASTCENTRAL PLAINS

CITY           SKY/WX    TMP DP  RH WIND       PRES   REMARKS
TUCUMCARI      PTCLDY    37  18  46 S9        29.65R WCI  30
6HR MIN TEMP:  34; 6HR MAX TEMP:  49;

CANNON AFB     HAZE      35  20  55 SW5       29.71S VSB<1/4 WCI  31
6HR MIN TEMP:  34; 6HR MAX TEMP:  44;

CLOVIS AIRPORT CLEAR     32  19  59 S7        29.71S WCI  26

$$
NMZ028-029-538-260700-
SOUTHEAST PLAINS

CITY           SKY/WX    TMP DP  RH WIND       PRES   REMARKS
ROSWELL        CLEAR     38  18  44 SE7       29.70R WCI  33
6HR MIN TEMP:  36; 6HR MAX TEMP:  59;

ARTESIA        CLEAR     37  21  52 N5        29.72S WCI  34
CARLSBAD       CLEAR     39  23  52 E5        29.71R
6HR MIN TEMP:  39; 6HR MAX TEMP:  56;

HOBBS          CLEAR     39  25  56 S10       29.76S WCI  32


$$



USA.gov is the U.S. government's official web portal to all federal, state and local government web resources and services.